Location: Coupvray
(48.8929°N, 2.7967°E)
Time: 08:50:10
(UTC+00:00)

Aureole 1 Rocket - Pass Details

Date: 14 July 2020
Orbit: 377 x 1380 km, 73.9° (Epoch: 14 August)

Event Time Altitude Azimuth Distance (km) Brightness Sun altitude
Exits shadow 02:26:03 17° 217° (SW) 1,704 4.6 -11.8°
Maximum altitude 02:29:44 67° 298° (WNW) 863 3.7 -11.5°
Drops below altitude 10° 02:35:58 10° 20° (NNE) 2,748 7.7 -10.9°
Sets 02:38:57 0° 23° (NNE) 3,868 8.9 -10.6°
